sat.trackr.live / text

‹ back to catalog

STARLINK-32079

NORAD 60336 · 2024-136H

PAYLOAD ACTIVE UNKNOWN

§ Identity

Operator
Country
US
Launch date
2024-08-02
Launch site
AFETR
Launch vehicle
Mass (kg)
RCS (m²)

Purposes: comms

External: N2YO · Heavens-Above · Gunter

§ Orbital elements

Epoch: 2026-05-25T02:40:01.574976Z

Period
94.11 min
Inclination
53.1608°
Eccentricity
0.0001319
Mean motion
15.30197917 rev/d
Perigee alt
474.3 km
Apogee alt
476.1 km
Semi-major
6,853.4 km
B*
2.6393e-5
RAAN
80.7945°
Arg perigee
86.6915°
Mean anomaly
273.4237°
Rev number
10,136

§ Raw data

STARLINK-320791 60336U 24136H   26145.11112934  .00000423  00000+0  26393-4 0  99992 60336  53.1608  80.7945 0001319  86.6915 273.4237 15.30197917101367

JSON: /api/v1/satellites/60336 · /tle

For live sub-satellite position, see the globe view (requires WebGL).

§ Visibility from observer

Set your observer location to see the next 7 days of passes ≥ 10°. The values pass through the URL so the page stays shareable.

No JS? Fill the form by hand. The geolocation button needs JavaScript.